Terminal Aerodrome Forecast
Issued by NWS

Home | Current Version | Previous Version | Text Only | Print | Product List | Glossary On
Versions: 1 2 3 4 5 6 7 8 9 10 11 12 13 14 15 16 17 18 19
000
FTUS43 KDLH 232300
TAFBRD
TAF
KBRD 232333Z 2400/2424 VRB04KT P6SM SCT250
     FM241200 12009KT P6SM -RA OVC050
     FM241800 12012KT P6SM -RA OVC015=

USA.gov is the U.S. government's official web portal to all federal, state and local government web resources and services.